This is the latest recevied weather packets stored in our database for station/object KC3DGM. If no packets are shown the sender has not sent any weather packets the latest 10 day(s).
| Time | Temp. | Humidity | Pressure | Rain* | Wind** | Luminosity | Snow |
|---|---|---|---|---|---|---|---|
| 1777826744 | 12.78° C | 50% | 986.1 hPa | 0 mm | - | 721 W/m² | - |
| 1777826441 | 12.78° C | 47% | 986.2 hPa | 0 mm | - | 484 W/m² | - |
| 1777826138 | 13.33° C | 50% | 986.4 hPa | 0 mm | - | 700 W/m² | - |
| 1777825835 | 12.78° C | 49% | 986.4 hPa | 0 mm | - | 763 W/m² | - |
| 1777825532 | 12.78° C | 46% | 986.2 hPa | 0 mm | - | 728 W/m² | - |
| 1777825230 | 12.78° C | 47% | 986.5 hPa | 0 mm | - | 678 W/m² | - |
| 1777824926 | 11.67° C | 49% | 986.5 hPa | 0 mm | - | 598 W/m² | - |
| 1777824622 | 11.67° C | 49% | 986.5 hPa | 0 mm | - | 683 W/m² | - |
| 1777824320 | 11.11° C | 50% | 986.4 hPa | 0 mm | - | 656 W/m² | - |
| 1777824015 | 11.67° C | 48% | 986.6 hPa | 0 mm | - | 307 W/m² | - |
| 1777823712 | 11.67° C | 45% | 986.8 hPa | 0 mm | - | 624 W/m² | - |
| 1777823409 | 11.11° C | 46% | 986.9 hPa | 0 mm | - | 321 W/m² | - |
| 1777823106 | 11.67° C | 45% | 986.7 hPa | 0 mm | - | 256 W/m² | - |
| 1777822804 | 12.22° C | 47% | 986.7 hPa | 0 mm | - | 764 W/m² | - |
| 1777822502 | 11.11° C | 47% | 986.7 hPa | 0 mm | - | 508 W/m² | - |
| 1777822199 | 11.67° C | 46% | 986.8 hPa | 0 mm | - | 688 W/m² | - |
| 1777821896 | 11.67° C | 51% | 986.8 hPa | 0 mm | - | 727 W/m² | - |
| 1777821594 | 11.11° C | 49% | 986.9 hPa | 0 mm | - | 247 W/m² | - |
| 1777821292 | 11.11° C | 49% | 986.9 hPa | 0 mm | - | 295 W/m² | - |
| 1777820989 | 11.67° C | 41% | 987.1 hPa | 0 mm | - | 360 W/m² | - |
| 1777820685 | 11.67° C | 53% | 987.2 hPa | 0 mm | - | 721 W/m² | - |
| 1777820381 | 10.56° C | 53% | 986.7 hPa | 0 mm | - | 796 W/m² | - |
| 1777820079 | 10.56° C | 51% | 987 hPa | 0 mm | - | 591 W/m² | - |
| 1777819776 | 10.56° C | 52% | 987.1 hPa | 0 mm | - | 750 W/m² | - |
| 1777819473 | 10.56° C | 51% | 987 hPa | 0 mm | - | 723 W/m² | - |
* Rain latest hour (hover to see other rain measurements)
** Current wind speed in m/s (hover to see current wind gust speed)